Location: Hartford
(41.7640°N, 72.6860°W)
Time: 09:58:42
(UTC-04:00)

Amateur Radio Satellites - All Passes

Search period start: 01 November 2014 09:28
Search period end: 02 November 2014 08:28
Location: Hartford, 41.7640°N, 72.6860°W

Satellite Date Start Highest point End Downlink Frequencies (MHz)
Time Altitude Azimuth
ISS 01 Nov 09:51:59 09:55:12 51° 140° (SE) 09:58:27 145.800 FM
UKube-1 01 Nov 10:11:49 10:15:57 40° 99° (E) 10:20:02 145.840 MHz, 145.915 MHz
ZACube-1 01 Nov 10:23:04 10:26:19 22° 94° (E) 10:29:32 437.345 MHz
Sapphire 01 Nov 10:41:05 10:46:05 36° 51° (NE) 10:51:03 437.095 MHz 1200 baud AX-25 AFSK
Oscar 11 01 Nov 10:45:53 10:50:12 84° 284° (WNW) 10:54:31 145.825 FM, Beacon 2401.500 USB
KITSAT 1 01 Nov 10:58:44 11:06:48 80° 118° (ESE) 11:14:54 435.175 FM
SO-50 01 Nov 10:59:42 11:04:08 64° 120° (ESE) 11:08:43 436.795 FM
PCSat 01 Nov 11:02:29 11:07:50 56° 56° (ENE) 11:13:08 145.825 MHz
FUNcube-1 01 Nov 11:05:02 11:09:12 65° 101° (E) 11:13:18 145.950 - 145.970 MHz USB
HO-68 01 Nov 11:05:56 11:12:32 40° 296° (WNW) 11:19:05 435.675 MHz FM
ISS 01 Nov 11:29:10 11:32:03 27° 338° (NNW) 11:34:57 145.800 FM
UOSAT-12 01 Nov 11:40:15 11:43:06 16° 109° (ESE) 11:46:00 437.025 FM, 437.400 FM
UKube-1 01 Nov 11:48:42 11:51:51 20° 295° (WNW) 11:54:58 145.840 MHz, 145.915 MHz
ZACube-1 01 Nov 11:59:04 12:02:45 30° 290° (WNW) 12:06:24 437.345 MHz
Oscar 19 01 Nov 12:12:25 12:15:32 17° 61° (ENE) 12:18:40 437.125 CW, 437.150 USB
Sapphire 01 Nov 12:24:35 12:29:27 35° 250° (WSW) 12:34:18 437.095 MHz 1200 baud AX-25 AFSK
SO-50 01 Nov 12:41:50 12:45:08 19° 319° (NW) 12:48:30 436.795 FM
FUNcube-1 01 Nov 12:43:35 12:45:01 12° 298° (WNW) 12:46:26 145.950 - 145.970 MHz USB
PCSat 01 Nov 12:46:50 12:50:48 21° 254° (WSW) 12:54:45 145.825 MHz
AO-27 01 Nov 12:51:15 12:54:24 16° 60° (ENE) 12:57:33 436.795 MHz FM
KITSAT 1 01 Nov 12:56:16 13:03:04 29° 320° (NW) 13:09:55 435.175 FM
Oscar 16 01 Nov 12:57:34 13:02:24 42° 70° (ENE) 13:07:13 437.025 USB, Beacon 2401.1428
JAS-1B 01 Nov 13:01:43 13:07:05 43° 68° (ENE) 13:12:30 435.800 - 435.900 CW/SSB
ISS 01 Nov 13:07:33 13:09:35 15° 358° (N) 13:11:36 145.800 FM
Gurwin Techsat 1B 01 Nov 13:13:04 13:15:40 14° 59° (ENE) 13:18:16 435.225 FM
UOSAT-12 01 Nov 13:18:10 13:22:45 60° 306° (NW) 13:27:26 437.025 FM, 437.400 FM
TMSAT-1 01 Nov 13:19:44 13:21:29 12° 57° (ENE) 13:23:13 436.925 FM
AO-Echo 01 Nov 13:24:26 13:29:02 38° 69° (ENE) 13:33:49 ?
Uribyol 2 01 Nov 13:32:24 13:37:13 39° 68° (ENE) 13:42:02 436.500 FM
ITAMSAT 1 01 Nov 13:40:31 13:45:26 43° 69° (ENE) 13:50:21 435.822 SSB
Saudisat 1A 01 Nov 13:45:01 13:49:05 34° 49° (NE) 13:53:08 436.775 MHz
Oscar 19 01 Nov 13:49:14 13:54:20 67° 258° (WSW) 13:59:27 437.125 CW, 437.150 USB
AO-27 01 Nov 14:28:07 14:33:19 70° 258° (WSW) 14:38:33 436.795 MHz FM
Oscar 16 01 Nov 14:37:49 14:41:54 24° 266° (W) 14:45:59 437.025 USB, Beacon 2401.1428
ISS 01 Nov 14:44:27 14:47:10 22° 19° (NNE) 14:49:53 145.800 FM
Gurwin Techsat 1B 01 Nov 14:49:35 14:54:54 84° 256° (WSW) 15:00:15 435.225 FM
JAS-1B 01 Nov 14:53:34 14:58:04 23° 267° (W) 15:02:34 435.800 - 435.900 CW/SSB
TMSAT-1 01 Nov 14:55:14 15:00:32 82° 75° (ENE) 15:05:52 436.925 FM
AO-7 01 Nov 14:57:37 15:04:53 36° 59° (ENE) 15:12:11 29.400 - 29.500 MHz
KITSAT 1 01 Nov 14:58:45 15:01:47 12° 349° (N) 15:04:49 435.175 FM
UOSAT-12 01 Nov 15:02:08 15:03:54 12° 327° (NNW) 15:05:39 437.025 FM, 437.400 FM
AO-Echo 01 Nov 15:03:46 15:07:54 26° 266° (W) 15:12:10 ?
Uribyol 2 01 Nov 15:12:24 15:16:46 27° 265° (W) 15:21:09 436.500 FM
Uosat F 01 Nov 15:18:02 15:21:42 21° 63° (ENE) 15:25:22 435.120 FM
ITAMSAT 1 01 Nov 15:20:55 15:25:04 24° 266° (W) 15:29:15 435.822 SSB
Saudisat 1A 01 Nov 15:24:48 15:28:32 27° 246° (WSW) 15:32:14 436.775 MHz
JAS-2 01 Nov 15:59:13 16:03:54 21° 56° (NE) 16:08:56 435.800 - 435.900 CW/SSB, 435.910 FM
ISS 01 Nov 16:20:49 16:24:10 77° 217° (SW) 16:27:29 145.800 FM
TMSAT-1 01 Nov 16:39:01 16:41:04 12° 272° (W) 16:43:08 436.925 FM
AO-7 01 Nov 16:49:18 16:57:21 55° 258° (WSW) 17:05:27 29.400 - 29.500 MHz
Uosat F 01 Nov 16:55:14 17:00:06 50° 260° (W) 17:05:01 435.120 FM
KITSAT 1 01 Nov 16:57:10 17:01:30 15° 21° (NNE) 17:05:49 435.175 FM
Hamsat 01 Nov 17:19:20 17:23:13 38° 72° (ENE) 17:27:06 145.90 MHz
OPAL 01 Nov 17:28:40 17:32:40 24° 97° (E) 17:36:38 ?
JAS-2 01 Nov 17:41:39 17:47:59 79° 257° (WSW) 17:55:13 435.800 - 435.900 CW/SSB, 435.910 FM
SO-50 01 Nov 17:52:06 17:54:12 13° 34° (NE) 17:56:17 436.795 FM
KITSAT 1 01 Nov 18:51:52 18:59:28 42° 47° (NE) 19:07:01 435.175 FM
SO-67 01 Nov 18:51:58 18:55:18 50° 75° (ENE) 18:58:39 435.3500 MHz FM
Hamsat 01 Nov 18:56:31 18:59:19 17° 268° (W) 19:02:07 145.90 MHz
OPAL 01 Nov 19:07:04 19:11:39 39° 293° (WNW) 19:16:13 ?
RS-15 01 Nov 19:08:33 19:15:07 18° 99° (E) 19:21:37 29.354 - 29.394 USB, Beacon 29.352 USB
STRAND 1 01 Nov 19:26:24 19:31:25 50° 100° (E) 19:36:22 ?
SO-50 01 Nov 19:30:53 19:35:42 63° 54° (NE) 19:40:33 436.795 FM
JAS-2 01 Nov 19:31:56 19:34:22 12° 278° (W) 19:36:55 435.800 - 435.900 CW/SSB, 435.910 FM
HO-68 01 Nov 19:47:23 19:53:34 33° 61° (ENE) 19:59:46 435.675 MHz FM
UOSAT-12 01 Nov 20:08:13 20:11:41 20° 41° (NE) 20:15:07 437.025 FM, 437.400 FM
Oscar 10/S400 01 Nov 20:13:35 20:48:56 51° 199° (SSW) 04:06:24 145.825 - 145.975 CW/USB, Beacon 145.810 USB
AO-40 01 Nov 20:27:37 22:29:55 28° 214° (SW) 01:31:26 Beacon 2401.320
KITSAT 1 01 Nov 20:47:18 20:55:00 50° 248° (WSW) 21:02:39 435.175 FM
STRAND 1 01 Nov 21:06:25 21:10:14 21° 297° (WNW) 21:14:01 ?
UKube-1 01 Nov 21:07:27 21:11:26 36° 70° (ENE) 21:15:27 145.840 MHz, 145.915 MHz
MaSat-1 01 Nov 21:08:16 21:11:08 20° 109° (ESE) 21:13:48 437.345 MHz
SO-50 01 Nov 21:12:42 21:15:48 17° 251° (WSW) 21:18:53 436.795 FM
RS-15 01 Nov 21:14:36 21:25:35 81° 119° (ESE) 21:36:32 29.354 - 29.394 USB, Beacon 29.352 USB
ZACube-1 01 Nov 21:19:54 21:23:15 21° 67° (ENE) 21:26:33 437.345 MHz
HO-68 01 Nov 21:34:02 21:40:57 52° 259° (W) 21:47:57 435.675 MHz FM
Oscar 11 01 Nov 21:40:51 21:45:09 78° 76° (ENE) 21:49:29 145.825 FM, Beacon 2401.500 USB
UOSAT-12 01 Nov 21:47:36 21:52:17 65° 240° (WSW) 21:56:52 437.025 FM, 437.400 FM
FUNcube-1 01 Nov 22:01:09 22:05:33 55° 74° (ENE) 22:09:53 145.950 - 145.970 MHz USB
MaSat-1 01 Nov 22:43:03 22:46:21 28° 301° (WNW) 22:49:23 437.345 MHz
UKube-1 01 Nov 22:44:28 22:47:43 20° 266° (W) 22:51:00 145.840 MHz, 145.915 MHz
ZACube-1 01 Nov 22:55:10 22:59:24 39° 262° (W) 23:03:34 437.345 MHz
RS-15 01 Nov 23:29:24 23:39:09 36° 325° (NW) 23:49:01 29.354 - 29.394 USB, Beacon 29.352 USB
FUNcube-1 01 Nov 23:39:48 23:42:13 14° 269° (W) 23:44:37 145.950 - 145.970 MHz USB
JAS-1B 02 Nov 00:45:09 00:48:59 14° 90° (E) 00:53:04 435.800 - 435.900 CW/SSB
Oscar 16 02 Nov 01:10:28 01:13:08 14° 90° (E) 01:15:48 437.025 USB, Beacon 2401.1428
Sapphire 02 Nov 01:23:40 01:28:16 29° 109° (ESE) 01:32:53 437.095 MHz 1200 baud AX-25 AFSK
AO-Echo 02 Nov 01:33:12 01:35:28 13° 88° (E) 01:37:44 ?
PCSat 02 Nov 01:44:26 01:49:36 48° 113° (ESE) 01:54:48 145.825 MHz
Uribyol 2 02 Nov 01:46:41 01:48:58 13° 89° (E) 01:51:14 436.500 FM
RS-15 02 Nov 01:48:18 01:56:05 21° 360° (N) 01:04:00 29.354 - 29.394 USB, Beacon 29.352 USB
ITAMSAT 1 02 Nov 01:54:36 01:57:26 15° 90° (E) 01:00:16 435.822 SSB
Oscar 19 02 Nov 01:00:38 01:05:30 42° 99° (E) 01:10:20 437.125 CW, 437.150 USB
JAS-1B 02 Nov 01:32:55 01:40:12 78° 104° (ESE) 01:48:55 435.800 - 435.900 CW/SSB
AO-27 02 Nov 01:41:04 01:46:01 41° 98° (E) 01:50:55 436.795 MHz FM
Oscar 16 02 Nov 01:47:52 01:52:59 69° 287° (WNW) 01:58:03 437.025 USB, Beacon 2401.1428
Gurwin Techsat 1B 02 Nov 02:05:47 02:10:44 38° 97° (E) 02:15:39 435.225 FM
Sapphire 02 Nov 02:06:24 02:11:30 41° 307° (NW) 02:16:39 437.095 MHz 1200 baud AX-25 AFSK
AO-Echo 02 Nov 02:09:30 02:14:51 80° 285° (WNW) 02:20:05 ?
TMSAT-1 02 Nov 02:11:13 02:15:56 32° 96° (E) 02:20:37 436.925 FM
Uribyol 2 02 Nov 02:23:48 02:29:01 76° 286° (WNW) 02:34:10 436.500 FM
PCSat 02 Nov 02:28:38 02:33:14 28° 312° (NW) 02:37:51 145.825 MHz
ITAMSAT 1 02 Nov 02:32:13 02:37:25 68° 287° (WNW) 02:42:34 435.822 SSB
Oscar 19 02 Nov 02:40:32 02:44:35 24° 295° (WNW) 02:48:38 437.125 CW, 437.150 USB
RS-15 02 Nov 03:03:13 03:13:07 35° 34° (NE) 03:23:17 29.354 - 29.394 USB, Beacon 29.352 USB
AO-27 02 Nov 03:21:03 03:25:17 26° 295° (WNW) 03:29:30 436.795 MHz FM
PANSAT 02 Nov 03:24:35 03:25:32 11° 175° (S) 03:26:29 not established
JAS-1B 02 Nov 03:24:56 03:30:16 23° 299° (WNW) 03:36:17 435.800 - 435.900 CW/SSB
OPAL 02 Nov 03:43:29 03:48:21 47° 68° (ENE) 03:53:10 ?
Gurwin Techsat 1B 02 Nov 03:46:04 03:50:32 28° 294° (WNW) 03:54:59 435.225 FM
AO-7 02 Nov 03:50:12 03:58:18 52° 102° (ESE) 04:06:22 29.400 - 29.500 MHz
AO-Echo 02 Nov 03:50:59 03:52:42 12° 303° (WNW) 03:54:25 ?
TMSAT-1 02 Nov 03:51:06 03:55:48 33° 293° (WNW) 04:00:29 436.925 FM
JAS-2 02 Nov 03:52:01 03:57:22 20° 87° (E) 04:02:32 435.800 - 435.900 CW/SSB, 435.910 FM
Uosat F 02 Nov 04:02:32 04:07:27 49° 100° (E) 04:12:18 435.120 FM
Uribyol 2 02 Nov 04:06:38 04:07:34 10° 304° (WNW) 04:08:30 436.500 FM
STRAND 1 02 Nov 04:09:01 04:09:19 10° 56° (ENE) 04:09:38 ?
Saudisat 1A 02 Nov 04:30:28 04:34:49 72° 121° (ESE) 04:39:13 436.775 MHz
RS-15 02 Nov 05:15:37 05:26:51 84° 240° (WSW) 05:38:34 29.354 - 29.394 USB, Beacon 29.352 USB
OPAL 02 Nov 05:23:36 05:27:26 21° 264° (W) 05:31:15 ?
JAS-2 02 Nov 05:35:18 05:43:14 86° 285° (WNW) 05:50:48 435.800 - 435.900 CW/SSB, 435.910 FM
Hamsat 02 Nov 05:39:58 05:44:12 79° 102° (ESE) 05:48:28 145.90 MHz
Uosat F 02 Nov 05:42:08 05:45:52 21° 297° (WNW) 05:49:35 435.120 FM
STRAND 1 02 Nov 05:42:28 05:47:35 74° 74° (ENE) 05:52:45 ?
AO-7 02 Nov 05:43:23 05:50:49 38° 301° (WNW) 05:58:15 29.400 - 29.500 MHz
MaSat-1 02 Nov 05:51:27 05:53:36 25° 58° (ENE) 05:55:38 437.345 MHz
Saudisat 1A 02 Nov 06:12:01 06:14:52 17° 320° (NW) 06:17:45 436.775 MHz
SO-67 02 Nov 06:47:32 06:50:57 58° 100° (E) 06:54:20 435.3500 MHz FM
Hamsat 02 Nov 07:19:14 07:19:31 10° 298° (WNW) 07:19:48 145.90 MHz
JAS-2 02 Nov 07:21:49 07:27:07 20° 304° (NW) 07:32:22 435.800 - 435.900 CW/SSB, 435.910 FM
STRAND 1 02 Nov 07:24:57 07:27:19 13° 270° (W) 07:29:42 ?
RS-15 02 Nov 07:30:05 07:37:35 21° 260° (W) 07:45:19 29.354 - 29.394 USB, Beacon 29.352 USB
HO-68 02 Nov 08:01:35 08:07:50 31° 96° (E) 08:14:02 435.675 MHz FM
ISS 02 Nov 08:03:12 08:06:06 29° 136° (SE) 08:09:02 145.800 FM
